www.pogodaiklimat.ru

Погода и климат >> Архив погоды >> Россия >> Мурманская область >> Ковдор


ПОГОДА в Ковдоре

  • Прогноз погоды в Ковдоре
  • Монитор погоды в Ковдоре
  • Климат города

АРХИВ ПОГОДЫ в Ковдоре

Время (UTC), дата Ветер
(напр.,м/с)
 
Видим.   Явления Облачность Т
(С)
Тd
(С)
f
(%)
Тe
(С)
Тes
(С)
Комфортность P
(гПа)
Po
(гПа)
Тmin
(С)
Tmax
(С)
R
(мм)
R24
(мм)
S
(см)
12 17.01 В 1
{2}
20 км 6 баллов -15.5 -16.6 91 -18 -18 1015.2 982.7
15 17.01 ЮВ 2
{4}
10 км слабый ливневой снег 10 баллов -15.0 -16.3 90 -20 -20 1015.2 982.7 0.0
18 17.01 штиль 0 20 км в посл. час ливневой снег 6 баллов -15.7 -16.8 91 -16 -16 1015.2 982.7 -13.5 0.0
21 17.01 В 1
{2}
20 км в посл. час ливневой снег 2 балла -15.5 -16.4 93 -18 -18 1015.2 982.7
00 18.01 СВ 2
{3}
20 км 5 баллов -15.1 -16.2 91 -20 -20 1015.2 982.7
03 18.01 СВ 1
{1}
20 км {ливн. осадки} 8/8 300 м
[Cb cap]
-14.8 -16.0 91 -17 -17 1013.7 981.3 -17.0 0.2
06 18.01 штиль 0 10 км слабый ливневой снег 6 баллов -15.6 -16.7 91 -16 -16 1013.8 981.3 -17.0 0.4
09 18.01 ЮВ 1
{3}
20 км слабый ливневой снег 9 баллов -11.1 -11.7 95 -13 -13 1013.2 981.3
12 18.01 ЮВ 2
{4}
20 км в посл. час ливневой снег 10 баллов -7.4 -8.2 94 -12 -12 1012.7 981.3
15 18.01 ЮВ 2
{5}
20 км 10 баллов -6.1 -6.9 94 -11 -11 1011.2 980.0 0.2
18 18.01 В 2
{3}
20 км 10 баллов -7.0 -7.7 95 -12 -12 1011.4 980.0 -5.9 0.0
21 18.01 В 2
{4}
10 км слабый ливневой снег 10 баллов -8.8 -9.3 96 -13 -13 1010.2 978.7
00 19.01 ЮВ 1
{2}
10 км слабый ливневой снег 10 баллов -10.1 -11.4 90 -12 -12 1009.0 977.3
03 19.01 В 1
{3}
4000 м слабый ливневой снег 9/6 300 м
[Cb cap Ac trans]
-10.7 -12.0 90 -13 -13 1007.1 975.4 -10.7 0.8
06 19.01 В 1
{2}
10 км слабый ливневой снег 9 баллов -11.0 -11.9 93 -13 -13 1007.7 976.0 -11.0 1
09 19.01 ЮВ 1
{1}
20 км в посл. час ливневой снег 4 балла -12.2 -13.1 93 -14 -14 1009.2 977.3
12 19.01 ЮВ 1
{3}
20 км слабый ливневой снег 7 баллов -14.4 -15.5 91 -17 -17 1010.9 978.7
15 19.01 ЮВ 1
{2}
20 км в посл. час ливневой снег 5 баллов -14.9 -16.0 91 -17 -17 1013.7 981.3 1
18 19.01 СВ 1
{1}
20 км 9 баллов -15.4 -16.7 90 -18 -18 1015.2 982.7 -10.9 0.4
21 19.01 ЮВ 2
{4}
10 км в посл. час ливневой снег 9 баллов -14.2 -15.6 89 -19 -19 1016.4 984.0
00 20.01 штиль 0 10 км слабый ливневой снег 10 баллов -13.2 -14.5 90 -13 -13 1017.6 985.3
03 20.01 В 1
{2}
10 км слабый ливневой снег 10/10 300 м
[Cb cap]
-11.7 -12.2 96 -14 -14 1017.0 984.9 -16.6 0.2
06 20.01 штиль 0 20 км в посл. час ливневой снег 10 баллов -10.1 -10.7 95 -11 -11 1018.7 986.7 -15.8 0.4
09 20.01 штиль 0 20 км слабый ливневой снег 10/10 300 м
[Cb cap]
-10.0 -10.6 95 -10 -10 1017.4 985.5
12 20.01 штиль 0 20 км слабый ливневой снег 10 баллов -8.6 -9.3 95 -9 -9 1017.0 985.3
15 20.01 ЮВ 3
{5}
10 км слабый ливневой снег 10 баллов -6.2 -7.1 93 -12 -12 1016.7 985.3 0.9
18 20.01 ЮВ 4-8
{10}
10 км слабый ливневой снег {метель} 9/9 300 м
[Cb cap]
-6.0 -7.1 92 -13 -13 1016.1 984.7 -5.7 0.9
21 20.01 ЮВ 3
{10}
20 км 7 баллов -8.9 -10.5 88 -15 -15 1018.5 986.7
00 21.01 ЮВ 2
{11}
10 км слабый ливневой снег 9 баллов -9.1 -10.4 90 -14 -14 1018.5 986.7
03 21.01 ЮВ 3
{5}
10 км слабый ливневой снег 9/9 300 м
[Cb cap]
-8.1 -9.7 88 -14 -14 1017.3 985.6 -9.2 0.4
06 21.01 ЮВ 4
{9}
10 км слабый ливневой снег 9 баллов -9.1 -10.9 87 -16 -16 1018.5 986.7 -9.6 0.4
09 21.01 В 1
{3}
20 км в посл. час ливневой снег 9 баллов -11.6 -12.6 92 -14 -14 1020.2 988.0
12 21.01 ЮВ 2
{3}
20 км слабый ливневой снег 9 баллов -10.8 -12.0 91 -15 -15 1020.1 988.0
15 21.01 В 1
{3}
10 км слабый ливневой снег 6 баллов -12.7 -13.9 91 -15 -15 1020.3 988.0 0.7
18 21.01 В 2
{4}
10 км слабый ливневой снег 7 баллов -14.2 -15.3 91 -19 -19 1020.5 988.0 -9.1 0.7
21 21.01 ЮВ 1
{2}
20 км в посл. час ливневой снег 7 баллов -15.7 -17.0 90 -18 -18 1020.7 988.0
00 22.01 штиль 0 20 км 4 балла -19.9 -21.2 89 -20 -20 1021.3 988.0
03 22.01 штиль 0 20 км в посл. час ливневой снег 9 баллов -17.7 -19.2 88 -18 -18 1021.0 988.0 -20.4 0.4
06 22.01 штиль 0 10 км слабый ливневой снег 4 балла -20.4 -22.0 87 -20 -20 1021.3 988.0 -20.4 0.2
09 22.01 штиль 0 20 км слабый ливневой снег 6/4 600 м
[Cb cap Ci sp]
-19.3 -20.8 88 -19 -19 1019.8 986.7
12 22.01 штиль 0 20 км слабый ливневой снег 7 баллов -22.4 -24.4 84 -22 -22 1020.3 986.7
15 22.01 СЗ 1
{2}
20 км 7 баллов -21.5 -23.2 86 -25 -25 1018.7 985.3 0.2
18 22.01 С 1
{4}
20 км 10 баллов -18.1 -19.5 89 -21 -21 1016.9 984.0 -18.0 0.2
21 22.01 С 1
{5}
10 км слабый снег 10 баллов -18.3 -19.8 88 -21 -21 1015.6 982.7
00 23.01 С 1
{3}
10 км слабый снег 10 баллов -17.2 -18.6 89 -20 -20 1014.0 981.3
03 23.01 штиль 0 4000 м слабый снег 10 баллов -16.7 -18.1 89 -17 -17 1013.9 981.3 -21.4 4
06 23.01 СВ 1
{1}
20 км 4 балла -22.0 -23.8 85 -25 -25 1014.6 981.3 -22.0 5
09 23.01 штиль 0 20 км дым 3/0
[Ac lent]
-22.9 -24.8 84 -23 -23 1013.8 980.4
12 23.01 штиль 0 20 км 1/0
[Ac lent]
-23.7 -25.8 83 -24 -24 1014.6 981.1
15 23.01 штиль 0 10 км слабый ливневой снег 2 балла -26.2 -28.6 80 -26 -26 1016.7 982.7 0.4
18 23.01 штиль 0 10 км дым 5 баллов -27.0 -29.4 80 -27 -27 1016.8 982.7 -22.0 0.0
21 23.01 штиль 0 20 км 4/0
[Ac trans Ci sp]
-28.8 -31.4 78 -29 -29 1015.9 981.7
00 24.01 штиль 0 20 км в посл. час ливневой снег 10 баллов -25.5 -27.8 81 -26 -26 1015.1 981.3
03 24.01 штиль 0 10 км слабый ливневой снег 10 баллов -25.1 -27.4 81 -25 -25 1015.1 981.3 -28.9 0.0
06 24.01 штиль 0 20 км 2 балла -28.3 -30.9 78 -28 -28 1014.2 980.0 -28.9 0.0

 

Местоположение метеостанции Ковдор (Мурманская область, Россия): широта 67.57 долгота 30.45 высота над уровнем моря 246 м.

В архиве по умолчанию представлена погода в Ковдоре за последнюю неделю. Архивные данные за месяц целиком и за предыдущие месяцы, начиная с января 2011 года, Вы можете получить, выбрав интересующий диапазон дат из раскрывающегося списка и нажав кнопку "Ввод!".

Внимание! Время в таблицах - всемирное. Для получения местного времени необходимо прибавить поправку, которая в Ковдоре равна 3 ч.

Смотрите также архив погоды в соседних городах и на ближайших метеорологических станциях:

Погода в Salla Varriotunturi (Финляндия) (41 км)
Погода в Алакуртти (Мурманская область, Россия) (69 км)
Погода в Salla Naruska (Финляндия) (71 км)
Погода в Ниванкюле (Мурманская область, Россия) (88 км)
Погода в Зашейке (Мурманская область, Россия) (91 км)
Погода в Кандалакше (Мурманская область, Россия) (94 км)
Погода в Порту Витино (Мурманская область, Россия) (97 км)
Погода в Порту Кандалакша (Мурманская область, Россия) (98 км)
Погода в Savukoski (Финляндия) (102 км)
Погода в Зареченске (Мурманская область, Россия) (108 км)

Пояснения к столбцам:

Ветер - указаны скорость ветра в м/с - средняя за 10 мин, порывы в срок и между сроками (в фигурных скобках) и направление, откуда дует ветер: С - северный, СВ - северо-восточный, В - восточный, ЮВ - юго-восточный, Ю - южный, ЮЗ - юго-западный, З - западный, СЗ - северо-западный.
Видимость - горизонтальная дальность видимости в метрах или километрах. При видимости от 1 до 10 км при отсутствии осадков обычно наблюдается дымка, при ухудшении видимости до 1 км и менее - туман. В сухую погоду видимость может ухудшаться дымом, пылью или мглою.
Явления - указаны атмосферные явления, наблюдавшиеся в срок или в последний час перед сроком; фигурными скобками обозначены явления, наблюдавшиеся между сроками (за 1-3 часа до срока); квадратными скобками обозначены град или гололедные отложения с указанием их диаметра в мм.
Облачность - указаны через наклонную черту общая и нижняя облачность в баллах и высота нижней границы облаков в метрах; квадратными скобками обозначены формы облаков: Ci - перистые, Cs - перисто-слоистые, Cc - перисто-кучевые, Ac - высококучевые, As - высокослоистые, Sc - слоисто-кучевые, Ns - слоисто-дождевые, Cu - кучевые, Cb - кучево-дождевые. Подробнее классификацию облаков см. в Атласе облаков (PDF).
T - Температура воздуха - температура, измеренная на высоте 2 м над землей.
Td - Температура точки росы - температура, при понижении до которой содержащийся в воздухе водяной пар достигнет насыщения.
f - Относительная влажность воздуха - влажноcть воздуха, измеренная на высоте 2 м над землей.
Te - Эффективная температура - температура, которую ощущает одетый по сезону человек в тени. Характеристика душности погоды. При расчете учитывается влияние влажности воздуха и скорости ветра на теплоощущения человека.
Tes - Эффективная температура на солнце - температура, которую ощущает человек, с поправкой на солнечный нагрев. Характеристика знойности погоды. Зависит от высоты солнца над горизонтом, облачности и скорости ветра. Ночью, в пасмурную погоду, а также при ветре 12 м/с и более поправка равна нулю.
P - Атмосферное давление - приведенное к уровню моря атмосферное давление.
Po - Атмосферное давление - измеренное на уровне метеостанции атмосферное давление.
Tmin - Минимальная температура - минимум температуры воздуха на высоте 2 м над землей.
Tmax - Максимальная температура - максимум температуры воздуха на высоте 2 м над землей.
R - Количество осадков - Количество выпавших осадков за период времени, мм. При наведении курсора мыши на число - период времени, за который выпало указанное количество осадков.
R24 - Количество осадков - Количество выпавших осадков за 24 часа, мм.
S - Снежный покров - Высота снежного покрова, см. При наведении курсора мыши на число - состояние снежного покрова и степень покрытия местности в баллах.